Regional Weather Roundup
Issued by NWS Lake Charles, LA

Home | Current Version | Previous Version | Text Only | Print | Product List | Glossary On
Versions: 1 2 3 4 5 6 7 8 9 10 11 12 13 14 15 16 17 18 19 20 21 22 23 24 25 26 27 28
000
ASUS44 KLCH 261010
RWRLCH
REGIONAL WEATHER ROUNDUP
NATIONAL WEATHER SERVICE LAKE CHARLES LA
500 AM CDT FRI MAY 26 2017

Note: "fair" indicates few or no clouds below 12,000 feet with no
significant weather and/or obstructions to visibility.


ACROSS SOUTHEAST TEXAS

CITY           SKY/WX    TMP DP  RH WIND       PRES   REMARKS
BEAUMONT       PTCLDY    74  68  81 S12       29.85R
BEAUMONT CITY  FAIR      73  68  84 MISG      29.87R
ORANGE         MOSUNNY   75  70  85 S10       29.87R
JASPER         MOCLDY    69  67  92 CALM      29.88R
$$

ACROSS CENTRAL LOUISIANA

CITY           SKY/WX    TMP DP  RH WIND       PRES   REMARKS
LEESVILLE      CLEAR     68  65  90 S12       29.85S
FULLERTON      FAIR      67  64  90 VRB3      29.83S
ALEXANDRIA INT PTCLDY    64  63  96 SE8       29.85R
ESLER FIELD    PTCLDY    64  63  96 S3        29.87R
DERIDDER       FAIR      66  64  95 SE3       29.88S
OAKDALE        SUNNY     66  64  93 SE3       29.88R
OPELOUSAS      FAIR      65  63  94 SE6       29.89S
$$

ACROSS SOUTHWEST AND SOUTH CENTRAL LOUISIANA

CITY           SKY/WX    TMP DP  RH WIND       PRES   REMARKS
SULPHUR        CLOUDY    74  69  82 S10       29.88R
LAKE CHARLES   PTCLDY    74  67  78 S9G17     29.87R
CHENNAULT INT  PTCLDY    71  67  88 S8        29.87S
CAMERON PHI    PTSUNNY   77  68  73 S20G29    29.86R
DEQUINCY       PTSUNNY   70  66  88 S6        29.87R
JENNINGS       FAIR      70  65  83 S8        29.88R
LAFAYETTE      CLEAR     70  67  90 S6        29.89S
NEW IBERIA     CLEAR     70  64  81 S8        29.91R
ABBEVILLE      FAIR      70  68  94 S8        29.90S
PATTERSON      CLEAR     66  65  96 SE5       29.93R
SALT POINT       N/A     75  66  73 VRB5      29.90S
$$

SELECTED SITES ACROSS THE REGION

CITY           SKY/WX    TMP DP  RH WIND       PRES   REMARKS
HOUSTON BUSH   PTCLDY    75  69  81 S6        29.84R
HOUSTON HOBBY  MOCLDY    74  71  91 S5        29.83R
GALVESTON      MOCLDY    78  73  84 S20       29.85R
COLLEGE STAT   CLOUDY    76  71  85 S8        29.81R
CONROE         CLOUDY    74  69  85 S12       29.83R
HUNTSVILLE     CLOUDY    74  68  81 S8        29.82R
LUFKIN         PTCLDY    66  65  96 S5        29.84R
SHREVEPORT     CLOUDY    70  65  84 S14       29.81R
MONROE         CLEAR     65  62  90 S3        29.88R
NATCHEZ MS     CLEAR     65  61  87 S8        29.91R
BATON ROUGE    CLEAR     67  61  81 S7        29.91S
N.O. INTL ARPT CLEAR     70  64  81 S6        29.94R
SLIDELL        CLEAR     65  61  87 CALM      29.94R
$$

MARINE REPORTS

STATION/POSITION TIME  SKY/WX   TEMP    WIND        PRES    VSBY
                                AIR SEA DIR/SP/G
                 (UTC)          (F)     (DEG/KT/KT) (MB)    (MI)
BUOY 30 S HIGH I 0850            77 78  190/ 21/ 25 1009.7
WVE H/P(F/S)=  6/ 6

SEA RIM ST PARK  0900            76     180/ 18/ 22 1010.9R
PORT ARTHUR      0948            75 78  180/  9/ 16 1011.1R
SABINE PASS N    0948            76 80  180/ 13/ 21 1012.4R
TEXAS POINT      NOT AVBL
CALCASIEU PASS   0948            77 78  190/ 22/ 28   N/A
LK CHARLES BEACH 0948            74 76              1011.8R
MARSH ISLAND     0900            78                   N/A
FRESH WATER LOCK 0948            76 77  160/ 19/ 22 1012.3R
AMERADA PASS     0948            74 73  150/  5/ 11 1013.0R
$$




USA.gov is the U.S. government's official web portal to all federal, state and local government web resources and services.